Location: Laterina
(43.5167°N, 11.7167°E)
Time: 06:44:21
(UTC+00:00)

Cosmos 2026 Rocket - Pass Details

Date: 18 January 2021
Orbit: 940 x 1000 km, 82.9° (Epoch: 08 March)

Event Time Altitude Azimuth Distance (km) Brightness Sun altitude
Rises 20:31:01 0° 243° (WSW) 3,607 7.4 -47.3°
Reaches altitude 10° 20:34:57 10° 268° (W) 2,677 6.8 -48.0°
Enters shadow 20:37:00 13° 287° (WNW) 2,444 6.5 -48.4°
